Location: Newark
(43.2700°N, 11.0700°E)
Time: 10:02:12
(UTC+00:00)

X-37B - Visible Passes

Search period start: 30 July 2021 00:00
Search period end: 09 August 2021 00:00
Orbit: 383 x 392 km, 45.0° (Epoch: 01 July)

Date Brightness Start Highest point End Pass type
(mag) Time Alt. Az. Time Alt. Az. Time Alt. Az.
31 Jul 2.6 02:54:45 12° S 02:56:40 19° SE 02:59:00 10° E visible
01 Aug 3.3 01:58:58 10° SE 01:58:58 10° SE 01:59:20 10° SE visible
01 Aug 1.1 03:31:33 10° SW 03:34:39 51° SSE 03:37:47 10° E visible
02 Aug 1.7 02:35:26 25° S 02:36:23 31° SSE 02:39:16 10° E visible
03 Aug 3.1 01:39:34 15° ESE 01:39:34 15° ESE 01:40:32 10° E visible
03 Aug 0.6 03:11:51 14° WSW 03:14:30 79° SSE 03:17:43 10° ENE visible
04 Aug 0.8 02:15:59 50° S 02:16:10 52° SSE 02:19:18 10° E visible
05 Aug 3.3 01:20:05 15° E 01:20:05 15° E 01:20:48 10° E visible
05 Aug 0.7 02:52:22 20° W 02:54:25 76° N 02:57:36 10° ENE visible
06 Aug 0.9 01:56:29 61° E 01:56:29 61° E 01:59:13 10° ENE visible
06 Aug 1.1 03:29:37 10° W 03:32:46 60° N 03:35:56 10° E visible
07 Aug 3.7 01:00:38 11° E 01:00:38 11° E 01:00:49 10° E visible
07 Aug 0.9 02:32:54 29° WNW 02:34:20 63° N 02:37:31 10° ENE visible
08 Aug 2.1 01:37:06 35° ENE 01:37:06 35° ENE 01:39:07 10° ENE visible
08 Aug 1.0 03:09:33 10° WNW 03:12:44 65° N 03:15:54 10° E visible
